{"data":{"norad_id":68142,"intl_designator":"2026-049A","name":"STARLINK-36604","alt_names":[],"object_type":"PAYLOAD","status":"ACTIVE","operator":null,"country":"US","launch_date":"2026-03-13","launch_site_code":"AFWTR","launch_vehicle":null,"mission":null,"orbit_class":"UNKNOWN","rcs_meters":null,"size_class":null,"mass_kg":null,"dimensions":null,"purposes":["comms"],"wikipedia_slug":null,"has_3d_model":false,"image_url":null,"decayed_at":null,"tle_current":{"epoch":"2026-05-25T00:46:44.391936Z","epoch_age_seconds":86419,"freshness":"FRESH","line1":"1 68142U 26049A   26145.03245824  .00010828  00000+0  33721-3 0  9995","line2":"2 68142  97.2858 166.6411 0000870 119.9898 240.1431 15.33447834 11343","mean_motion":15.33447834,"eccentricity":8.7e-5,"inclination_deg":97.2858,"raan_deg":166.6411,"arg_perigee_deg":119.9898,"mean_anomaly_deg":240.1431,"bstar":0.00033721,"rev_number":1134,"period_min":93.906031106631,"perigee_km":464.93934305941,"apogee_km":466.1301419426,"semimajor_km":6843.671742501,"source":"CELESTRAK","updated_at":"2026-05-25T13:38:21.846277Z"}}}